When you browse on this site, cookies collect data to enhance your experience and personalize the content and advertising you see.
Visit our Privacy Policy to learn more. By continuing to use the site, you agree to this use of cookies and data.
  • In Spain
  • List of Countries
  • For 7 days
  • Water Temperature
  • Weather Map
  • Weather Widgets
  • user-avatar
    Login

    Hourly Weather Livingstone

    Today, 22 October, Tuesday

    Time Temperature Precipitation Wind Pressure Humidity
    00:00 +28°C° 0 mm 1 mps 679 mmHg 19%
    01:00 +27°C° 0 mm 1 mps 679 mmHg 20%
    02:00 +27°C° 0 mm 1 mps 678 mmHg 23%
    03:00 +26°C° 0 mm 1 mps 679 mmHg 23%
    04:00 +26°C° 0 mm 1 mps 679 mmHg 24%
    05:00 +23°C° 0 mm 0 mps 679 mmHg 24%
    06:00 +28°C° 0 mm 1 mps 680 mmHg 21%
    07:00 +31°C° 0 mm 2 mps 681 mmHg 18%
    08:00 +35°C° 0 mm 3 mps 682 mmHg 15%
    09:00 +38°C° 0 mm 3 mps 682 mmHg 13%
    10:00 +40°C° 0 mm 3 mps 682 mmHg 11%
    11:00 +44°C° 0 mm 3 mps 682 mmHg 9%
    12:00 +44°C° 0 mm 3 mps 681 mmHg 9%
    13:00 +45°C° 0 mm 3 mps 681 mmHg 9%
    14:00 +45°C° 0 mm 2 mps 680 mmHg 9%
    15:00 +44°C° 0 mm 3 mps 679 mmHg 9%
    16:00 +44°C° 0 mm 3 mps 679 mmHg 10%
    17:00 +43°C° 0 mm 4 mps 678 mmHg 10%
    18:00 +39°C° 0 mm 3 mps 678 mmHg 12%
    19:00 +36°C° 0 mm 3 mps 678 mmHg 15%
    20:00 +34°C° 0 mm 2 mps 678 mmHg 17%
    21:00 +32°C° 0 mm 2 mps 678 mmHg 18%
    22:00 +31°C° 0 mm 2 mps 678 mmHg 18%
    23:00 +30°C° 0 mm 2 mps 679 mmHg 19%

    Tomorrow, 23 October, Wednesday

    Time Temperature Precipitation Wind Pressure Humidity
    00:00 +30°C° 0 mm 2 mps 679 mmHg 20%
    01:00 +30°C° 0 mm 2 mps 679 mmHg 20%
    02:00 +30°C° 0 mm 3 mps 678 mmHg 21%
    03:00 +29°C° 0 mm 3 mps 679 mmHg 22%
    04:00 +29°C° 0 mm 3 mps 679 mmHg 22%
    05:00 +29°C° 0 mm 3 mps 679 mmHg 22%
    06:00 +30°C° 0 mm 4 mps 680 mmHg 23%
    07:00 +33°C° 0 mm 5 mps 681 mmHg 24%
    08:00 +35°C° 0 mm 6 mps 682 mmHg 24%
    09:00 +38°C° 0 mm 6 mps 682 mmHg 21%
    10:00 +40°C° 0 mm 6 mps 682 mmHg 18%
    11:00 +42°C° 0 mm 5 mps 682 mmHg 14%
    12:00 +42°C° 0 mm 5 mps 681 mmHg 14%
    13:00 +43°C° 0 mm 4 mps 680 mmHg 13%
    14:00 +43°C° 0 mm 3 mps 679 mmHg 12%
    15:00 +42°C° 0 mm 3 mps 679 mmHg 12%
    16:00 +42°C° 0 mm 3 mps 679 mmHg 13%
    17:00 +42°C° 0 mm 3 mps 678 mmHg 13%
    18:00 +39°C° 0 mm 3 mps 679 mmHg 17%
    19:00 +36°C° 0 mm 3 mps 679 mmHg 21%
    20:00 +34°C° 0 mm 3 mps 679 mmHg 25%
    21:00 +33°C° 0 mm 3 mps 679 mmHg 26%
    22:00 +31°C° 0 mm 2 mps 679 mmHg 27%
    23:00 +31°C° 0 mm 2 mps 679 mmHg 28%

    Day after tomorrow, 24 October, Thursday

    Time Temperature Precipitation Wind Pressure Humidity
    00:00 +30°C° 0 mm 2 mps 679 mmHg 28%
    01:00 +30°C° 0 mm 2 mps 679 mmHg 29%
    02:00 +30°C° 0 mm 2 mps 679 mmHg 29%
    03:00 +29°C° 0 mm 1 mps 679 mmHg 31%
    04:00 +28°C° 0 mm 1 mps 679 mmHg 32%
    05:00 +25°C° 0 mm 0 mps 679 mmHg 34%
    06:00 +29°C° 0 mm 1 mps 680 mmHg 30%
    07:00 +32°C° 0 mm 2 mps 681 mmHg 25%
    08:00 +35°C° 0 mm 3 mps 682 mmHg 21%
    09:00 +38°C° 0 mm 3 mps 682 mmHg 18%
    10:00 +40°C° 0 mm 3 mps 683 mmHg 16%
    11:00 +43°C° 0 mm 3 mps 683 mmHg 13%
    12:00 +44°C° 0 mm 3 mps 682 mmHg 12%
    13:00 +43°C° 0 mm 2 mps 681 mmHg 12%
    14:00 +43°C° 0 mm 2 mps 680 mmHg 12%
    15:00 +43°C° 0 mm 3 mps 680 mmHg 12%
    16:00 +42°C° 0 mm 3 mps 679 mmHg 13%
    17:00 +42°C° 0 mm 4 mps 679 mmHg 13%
    18:00 +40°C° 0 mm 4 mps 679 mmHg 15%
    19:00 +36°C° 0 mm 3 mps 679 mmHg 17%
    20:00 +34°C° 0 mm 2 mps 679 mmHg 20%
    21:00 +32°C° 0 mm 2 mps 679 mmHg 20%
    22:00 +31°C° 0 mm 1 mps 679 mmHg 20%
    23:00 +30°C° 0 mm 1 mps 680 mmHg 20%

    25 October, Friday

    Time Temperature Precipitation Wind Pressure Humidity
    00:00 +30°C° 0 mm 1 mps 680 mmHg 20%
    01:00 +30°C° 0 mm 2 mps 680 mmHg 20%
    02:00 +30°C° 0 mm 2 mps 680 mmHg 20%
    03:00 +29°C° 0 mm 1 mps 680 mmHg 22%
    04:00 +28°C° 0 mm 1 mps 680 mmHg 23%
    05:00 +27°C° 0 mm 1 mps 680 mmHg 25%
    06:00 +29°C° 0 mm 1 mps 681 mmHg 23%
    07:00 +31°C° 0 mm 2 mps 682 mmHg 22%
    08:00 +34°C° 0 mm 3 mps 683 mmHg 21%
    09:00 +37°C° 0 mm 3 mps 683 mmHg 19%
    10:00 +40°C° 0 mm 4 mps 683 mmHg 18%
    11:00 +42°C° 0 mm 4 mps 683 mmHg 17%
    12:00 +42°C° 0 mm 4 mps 682 mmHg 16%
    13:00 +42°C° 0 mm 3 mps 681 mmHg 16%
    14:00 +42°C° 0 mm 2 mps 680 mmHg 15%
    15:00 +41°C° 0 mm 2 mps 680 mmHg 16%
    16:00 +40°C° 0 mm 2 mps 680 mmHg 17%
    17:00 +39°C° 0 mm 2 mps 679 mmHg 17%
    18:00 +37°C° 0 mm 2 mps 680 mmHg 20%
    19:00 +34°C° 0 mm 1 mps 680 mmHg 23%
    20:00 +32°C° 0 mm 1 mps 680 mmHg 25%
    21:00 +32°C° 0 mm 1 mps 680 mmHg 26%
    22:00 +31°C° 0 mm 1 mps 680 mmHg 27%
    23:00 +30°C° 0 mm 1 mps 680 mmHg 29%

    26 October, Saturday

    Time Temperature Precipitation Wind Pressure Humidity
    00:00 +29°C° 0 mm 1 mps 680 mmHg 30%
    01:00 +28°C° 0 mm 1 mps 680 mmHg 32%
    02:00 +27°C° 0 mm 1 mps 679 mmHg 34%
    03:00 +27°C° 0 mm 1 mps 680 mmHg 34%
    04:00 +26°C° 0 mm 1 mps 680 mmHg 34%
    05:00 +26°C° 0 mm 1 mps 680 mmHg 34%
    06:00 +29°C° 0 mm 2 mps 681 mmHg 28%
    07:00 +33°C° 0 mm 3 mps 682 mmHg 23%
    08:00 +35°C° 0 mm 3 mps 682 mmHg 18%
    09:00 +38°C° 0 mm 3 mps 683 mmHg 16%
    10:00 +40°C° 0 mm 3 mps 683 mmHg 14%
    11:00 +44°C° 0 mm 3 mps 683 mmHg 12%
    12:00 +45°C° 0 mm 3 mps 682 mmHg 12%
    13:00 +46°C° 0 mm 3 mps 681 mmHg 11%
    14:00 +46°C° 0 mm 3 mps 680 mmHg 10%
    15:00 +45°C° 0 mm 3 mps 680 mmHg 11%
    16:00 +44°C° 0 mm 3 mps 679 mmHg 12%
    17:00 +43°C° 0 mm 3 mps 679 mmHg 12%
    18:00 +40°C° 0 mm 3 mps 679 mmHg 14%
    19:00 +37°C° 0 mm 3 mps 679 mmHg 16%
    20:00 +35°C° 0 mm 3 mps 679 mmHg 18%
    21:00 +32°C° 0 mm 2 mps 679 mmHg 19%
    22:00 +31°C° 0 mm 2 mps 679 mmHg 20%
    23:00 +30°C° 0 mm 2 mps 679 mmHg 21%

    27 October, Sunday

    Time Temperature Precipitation Wind Pressure Humidity
    00:00 +30°C° 0 mm 1 mps 678 mmHg 21%
    01:00 +29°C° 0 mm 1 mps 678 mmHg 22%
    02:00 +28°C° 0 mm 1 mps 678 mmHg 23%
    03:00 +27°C° 0 mm 1 mps 678 mmHg 25%
    04:00 +24°C° 0 mm 0 mps 678 mmHg 26%
    05:00 +23°C° 0 mm 0 mps 678 mmHg 28%
    06:00 +28°C° 0 mm 1 mps 679 mmHg 25%
    07:00 +31°C° 0 mm 1 mps 680 mmHg 22%
    08:00 +35°C° 0 mm 2 mps 681 mmHg 19%
    09:00 +37°C° 0 mm 3 mps 681 mmHg 17%
    10:00 +40°C° 0 mm 3 mps 681 mmHg 15%
    11:00 +44°C° 0 mm 3 mps 681 mmHg 13%
    12:00 +43°C° 0 mm 3 mps 680 mmHg 13%
    13:00 +43°C° 0 mm 3 mps 680 mmHg 13%
    14:00 +43°C° 0 mm 3 mps 679 mmHg 13%
    15:00 +41°C° 0 mm 2 mps 678 mmHg 13%
    16:00 +41°C° 0 mm 1 mps 678 mmHg 13%
    17:00 +41°C° 0 mm 1 mps 678 mmHg 13%
    18:00 +39°C° 0 mm 1 mps 678 mmHg 16%
    19:00 +35°C° 0 mm 1 mps 677 mmHg 19%
    20:00 +33°C° 0 mm 1 mps 677 mmHg 21%
    21:00 +32°C° 0 mm 1 mps 677 mmHg 23%
    22:00 +31°C° 0 mm 1 mps 678 mmHg 24%
    23:00 +30°C° 0 mm 2 mps 678 mmHg 25%

    28 October, Monday

    Time Temperature Precipitation Wind Pressure Humidity
    00:00 +29°C° 0 mm 1 mps 677 mmHg 26%
    01:00 +29°C° 0 mm 1 mps 677 mmHg 27%
    02:00 +28°C° 0 mm 1 mps 677 mmHg 28%
    03:00 +27°C° 0 mm 1 mps 677 mmHg 29%
    04:00 +27°C° 0 mm 1 mps 677 mmHg 30%
    05:00 +26°C° 0 mm 1 mps 677 mmHg 31%
    06:00 +29°C° 0 mm 1 mps 678 mmHg 27%
    07:00 +31°C° 0 mm 2 mps 679 mmHg 23%
    08:00 +35°C° 0 mm 3 mps 679 mmHg 19%
    09:00 +38°C° 0 mm 3 mps 680 mmHg 16%
    10:00 +42°C° 0 mm 3 mps 680 mmHg 13%
    11:00 +45°C° 0 mm 3 mps 680 mmHg 11%
    12:00 +45°C° 0 mm 2 mps 680 mmHg 10%
    13:00 +45°C° 0 mm 2 mps 679 mmHg 10%
    14:00 +44°C° 0 mm 1 mps 678 mmHg 10%
    15:00 +44°C° 0 mm 1 mps 678 mmHg 10%
    16:00 +43°C° 0 mm 1 mps 677 mmHg 11%
    17:00 +43°C° 0 mm 1 mps 677 mmHg 11%
    18:00 +40°C° 0 mm 1 mps 676 mmHg 14%
    19:00 +36°C° 0 mm 1 mps 676 mmHg 16%
    20:00 +33°C° 0 mm 1 mps 676 mmHg 19%
    21:00 +32°C° 0 mm 1 mps 677 mmHg 20%
    22:00 +31°C° 0 mm 1 mps 677 mmHg 21%
    23:00 +30°C° 0 mm 2 mps 677 mmHg 22%
    Show more